Location: Tamazert
(32.6352°N, 5.2072°W)
Time: 07:18:11
(UTC+00:00)

Tiros 1 despin weight - Pass Details

Date: 13 October 2022
Orbit: 590 x 637 km, 48.2° (Epoch: 28 November)

Event Time Altitude Azimuth Distance (km) Brightness Sun altitude
Rises 16:03:02 0° 316° (NW) 2,841 ? 20.8°
Reaches altitude 10° 16:06:32 10° 345° (NNW) 1,948 ? 20.1°
Maximum altitude 16:08:37 13° 13° (NNE) 1,766 ? 19.7°
Drops below altitude 10° 16:10:43 10° 41° (NE) 1,961 ? 19.3°
Sets 16:14:16 0° 70° (ENE) 2,878 ? 18.6°
